Regional Weather Roundup
Issued by NWS

Home | Current Version | Previous Version | Text Only | Print | Product List | Glossary Off
Versions: 1 2 3 4 5 6 7 8 9 10 11 12 13 14 15 16 17 18 19 20 21 22 23 24 25 26 27 28 29 30 31 32 33 34 35 36 37 38 39 40 41 42 43 44 45 46 47 48 49 50

000
ASUS43 KOAX 010110
RWRNE

WEATHER ROUNDUP FOR NEBRASKA
NATIONAL WEATHER SERVICE OMAHA NE
800 PM CDT SUN AUG 31 2014

NOTES: SATELLITE DATA IS BEING USED TO AUGMENT CLOUD COVER ABOVE
       12000 FEET.
       "FAIR" INDICATES FEW OR NO CLOUDS BELOW 12,000 FEET WITH NO
       SIGNIFICANT WEATHER AND/OR OBSTRUCTIONS TO VISIBILITY.

  * THESE STATIONS DO NOT REPORT WEATHER SUCH AS RAIN...SNOW OR FOG.

NEZ001>004-019>022-054>056-010200-
NEBRASKA PANHANDLE

CITY           SKY/WX    TMP DP  RH WIND       PRES   REMARKS
SCOTTSBLUFF    PTCLDY    65  48  54 NW17G24   29.87R
ALLIANCE       MOCLDY    60  52  74 NW9       29.85R
CHADRON        CLOUDY    59  54  83 N6        29.87R
KIMBALL        CLEAR     65  45  47 N15G21    29.90R
SIDNEY         PTCLDY    69  42  37 N25G31    29.88R
$$

NEZ057>060-069>072-079>082-010200-
SOUTHWEST NEBRASKA

CITY           SKY/WX    TMP DP  RH WIND       PRES   REMARKS
NORTH PLATTE   PTCLDY    66  57  72 W7        29.77R
IMPERIAL       MOCLDY    73  54  51 N3        29.80S
LEXINGTON      PTCLDY    69  63  80 E3        29.73R
MCCOOK         CLOUDY    71  60  68 N3        29.73F
OGALLALA       MOCLDY    65  54  67 SW3       29.78F
$$

NEZ005>010-023>029-035>040-094-010200-
NORTH CENTRAL NEBRASKA

CITY           SKY/WX    TMP DP  RH WIND       PRES   REMARKS
VALENTINE      LGT RAIN  69  60  73 E9        29.67F
AINSWORTH      MOCLDY    67  60  78 NW3       29.68F
BROKEN BOW     CLEAR     67  59  75 W9        29.68F
O`NEILL        PTCLDY    68  63  84 E7        29.65F
ORD            PTCLDY    70  57  63 S9        29.64F
THEDFORD       CLEAR     73  54  52 W12       29.73R
$$

NEZ041-046>049-061>064-073>077-083>087-010200-
SOUTH CENTRAL NEBRASKA

CITY           SKY/WX    TMP DP  RH WIND       PRES   REMARKS
GRAND ISLAND   PTCLDY    71  60  68 SE10      29.70F
AURORA         MOCLDY    69  62  78 E3        29.69F
HASTINGS       PTCLDY    71  58  63 E10       29.71F
HEBRON         CLOUDY    72  64  74 N10       29.70F
HOLDREGE       PTCLDY    69  61  75 CALM      29.75R
KEARNEY *      CLEAR     68  61  77 SE8       29.74R
YORK           CLOUDY    68 N/A N/A E13       29.69F
$$

NEZ011>018-030>034-042>045-010200-
NORTHEAST NEBRASKA

CITY           SKY/WX    TMP DP  RH WIND       PRES   REMARKS
NORFOLK        CLOUDY    69  63  81 SE6       29.64F
ALBION         PTCLDY    68  61  77 CALM      29.67R
BLAIR          CLOUDY    70  67  90 W10G17    29.74R
FREMONT        TSTM      69  65  90 NW14      29.75R
TEKAMAH        LGT RAIN  68  66  93 S5        29.72R FOG
WAYNE          CLOUDY    68  65  92 E3        29.64F
$$

NEZ050>053-065>068-078-088>093-010200-
SOUTHEAST NEBRASKA

CITY           SKY/WX    TMP DP  RH WIND       PRES   REMARKS
LINCOLN        CLOUDY    70  67  90 N10       29.73R
OMAHA EPPLEY   TSTM      73  67  81 SW12G21   29.71R
BEATRICE       CLOUDY    73  70  89 W10       29.71R
FALLS CITY     LGT RAIN  80  69  69 SE7       29.66S
NEBRASKA CITY  TSTM      79  68  68 SW8G25    29.64R
PLATTSMOUTH    TSTM      75  69  81 W12G28    29.71R
$$

NEZ044-045-051>053-067-010200-
OMAHA AREA

CITY           SKY/WX    TMP DP  RH WIND       PRES   REMARKS
OMAHA EPPLEY   TSTM      73  67  81 SW12G21   29.71R
BLAIR          CLOUDY    70  67  90 W10G17    29.74R
FREMONT        TSTM      69  65  90 NW14      29.75R
MILLARD        RAIN      71  67  88 W16G28    29.71R
OFFUTT AFB     TSTM      74  73  97 VRB5G22   29.68R FOG
PLATTSMOUTH    TSTM      75  69  81 W12G28    29.71R
WAHOO          LGT RAIN  69  64  84 SW3       29.75R
$$


USA.gov is the U.S. government's official web portal to all federal, state and local government web resources and services.